Simultaneous Nadir Overpasses (SNOs) Predictions

Prediction of SNOs between GOES-17 and AQUA Satellite Orbit:

Table of predicted SNOs for the next 14.0 days since TLE Epoch: 1/22/2021
Index Date Time (GOES-17) GOES-17 Lat,Lon AQUA Lat,Lon Distance(km) Time Diff (sec)
1 01/23/2021 10:42:45 -0.03,-137.20 -0.06,-137.16 6.09 80
2 01/25/2021 10:30:33 0.02,-137.18 -0.59,-134.19 339.45 80
3 01/25/2021 22:51:58 -0.02,-137.17 -0.49,-139.39 251.99 80
4 01/27/2021 22:42:28 -0.01,-137.14 0.16,-136.44 80.23 80
5 01/29/2021 22:30:17 -0.01,-137.10 0.76,-133.48 411.80 80
6 01/30/2021 10:51:33 0.01,-137.09 0.32,-138.64 175.50 80
7 02/01/2021 10:36:42 0.01,-137.05 -0.27,-135.68 155.53 80
8 02/01/2021 22:58:06 -0.01,-137.03 -0.85,-140.86 436.54 80
9 02/03/2021 10:24:32 0.00,-137.00 -0.93,-132.73 486.01 80
10 02/03/2021 22:45:56 -0.01,-136.98 -0.19,-137.92 106.15 80
